Location: Kershaw
(34.5481°N, 80.5823°W)
Time: 08:56:09
(UTC+00:00)

Explorer 7 - Pass Details

Date: 10 October 2022
Orbit: 481 x 665 km, 50.3° (Epoch: 28 November)

Event Time Altitude Azimuth Distance (km) Brightness Sun altitude
Rises 11:29:46 0° 201° (SSW) 2,884 10.4 0.4°
Reaches altitude 10° 11:32:15 10° 190° (S) 2,008 9.7 0.9°
Maximum altitude 11:36:17 30° 130° (SE) 1,168 9.4 1.7°
Drops below altitude 10° 11:40:27 10° 70° (ENE) 2,077 10.9 2.5°
Sets 11:43:03 0° 60° (ENE) 3,000 11.4 3.1°
